Location: Arbon
(43.0005°N, 0.7472°E)
Time: 16:54:41
(UTC+00:00)

Cosmos 2195 Rocket - Pass Details

Date: 07 August 2020
Orbit: 949 x 993 km, 82.9° (Epoch: 22 September)

Event Time Altitude Azimuth Distance (km) Brightness Sun altitude
Rises 01:27:23 0° 351° (N) 3,699 8.4 -27.6°
Reaches altitude 10° 01:29:54 10° 351° (N) 2,752 7.6 -27.4°
Maximum altitude 01:36:14 83° 265° (W) 1,002 4.4 -26.9°
Enters shadow 01:37:07 68° 191° (S) 1,064 4.4 -26.8°
